{"data":{"norad_id":49165,"intl_designator":"2021-082AM","name":"STARLINK-3052","alt_names":[],"object_type":"PAYLOAD","status":"ACTIVE","operator":null,"country":"US","launch_date":"2021-09-14","launch_site_code":"AFWTR","launch_vehicle":null,"mission":null,"orbit_class":"UNKNOWN","rcs_meters":null,"size_class":null,"mass_kg":null,"dimensions":null,"purposes":["comms"],"wikipedia_slug":null,"has_3d_model":false,"image_url":null,"decayed_at":null,"tle_current":{"epoch":"2026-09-20T04:00:03.000096Z","epoch_age_seconds":70169,"freshness":"FRESH","line1":"1 49165U 21082AM  26263.16670139  .00078451  00000+0  50193-2 0  9994","line2":"2 49165  70.0001 163.9811 0005211 281.1477 335.0974 15.08139565  5754","mean_motion":15.08139565,"eccentricity":0.0005211,"inclination_deg":70.0001,"raan_deg":163.9811,"arg_perigee_deg":281.1477,"mean_anomaly_deg":335.0974,"bstar":0.0050193,"rev_number":575,"period_min":95.481879357764,"perigee_km":538.27914356429,"apogee_km":545.49119066686,"semimajor_km":6920.0221671156,"source":"CELESTRAK","updated_at":"2026-09-20T09:00:39.252511Z"}}}